DW9140 Weather Reports


Display with metric or nautical units.
time (UTC)temp
F
wind
direction
speed
MPH
gust
MPH
rain 1hr
in
rain 24hr
in
rain mn
in
humidity
%
barometer
mb
20200401090942 33 86 0.0 0.0 0.00 0.00 0.00 81 1016.8
20200401085941 33 85 0.0 0.0 0.00 0.00 0.00 80 1016.8
20200401084947 33 86 0.0 0.0 0.00 0.00 0.00 80 1016.9
20200401083951 33 88 0.0 0.0 0.00 0.00 0.00 80 1017.0
20200401082940 33 90 0.0 0.0 0.00 0.00 0.00 80 1017.2
20200401081945 33 97 0.0 0.0 0.00 0.00 0.00 80 1017.4
20200401080934 33 79 0.0 0.0 0.00 0.00 0.00 80 1017.4
20200401075937 33 84 0.0 0.0 0.00 0.00 0.00 80 1017.2
20200401074940 33 75 0.0 0.0 0.00 0.00 0.00 80 1017.3
20200401073947 33 90 0.0 0.0 0.00 0.00 0.00 80 1017.4
20200401072936 33 73 0.0 0.0 0.00 0.00 0.00 79 1017.3
20200401071945 33 90 0.0 0.0 0.00 0.00 0.00 79 1017.1
20200401070934 34 69 0.0 0.0 0.00 0.00 0.00 78 1017.1
20200401065925 34 71 0.0 0.0 0.00 0.00 0.00 77 1017.1
20200401064942 34 73 0.0 0.0 0.00 0.00 0.00 77 1017.4
20200401063949 35 78 0.0 0.0 0.00 0.00 0.00 76 1017.3
20200401062946 35 106 0.0 0.0 0.00 0.00 0.00 75 1017.1
20200401061938 35 96 0.0 0.0 0.00 0.00 0.00 75 1017.1
20200401060949 36 99 0.0 0.0 0.00 0.00 0.00 74 1017.2
20200401055923 36 74 0.0 0.0 0.00 0.00 0.00 74 1017.2
20200401054942 37 85 0.0 0.0 0.00 0.00 0.00 73 1017.5
20200401053952 37 66 0.0 0.0 0.00 0.00 0.00 74 1017.5
20200401052937 37 75 0.0 0.0 0.00 0.00 0.00 73 1017.7
20200401051939 38 82 0.0 0.0 0.00 0.00 0.00 73 1017.6
20200401050950 38 96 0.0 13.0 0.00 0.00 0.00 73 1017.7
20200401045942 38 360 9.0 14.0 0.00 0.00 0.00 73 1017.8
20200401044948 39 360 0.0 16.0 0.00 0.00 0.00 72 1017.9
20200401043925 39 98 0.0 14.0 0.00 0.00 0.00 71 1017.8
20200401042935 40 86 6.0 14.0 0.00 0.00 0.00 72 1017.8
20200401041939 40 360 0.0 0.0 0.00 0.00 0.00 72 1017.7
20200401040946 41 360 0.0 0.0 0.00 0.00 0.00 70 1017.2
20200401035941 41 360 8.0 18.0 0.00 0.00 0.00 70 1016.9
20200401034952 42 360 0.0 12.0 0.00 0.00 0.00 69 1017.1
20200401033940 42 360 0.0 14.0 0.00 0.00 0.00 68 1017.2
20200401032948 43 75 0.0 0.0 0.00 0.00 0.00 67 1017.2
20200401031941 43 78 0.0 0.0 0.00 0.00 0.00 64 1017.3
20200401030934 43 43 0.0 0.0 0.00 0.00 0.00 63 1017.5
20200401025950 43 74 0.0 0.0 0.00 0.00 0.00 63 1017.5
20200401024943 43 59 0.0 0.0 0.00 0.00 0.00 62 1017.6
20200401023952 44 53 0.0 0.0 0.00 0.00 0.00 61 1017.6
20200401022940 44 63 0.0 0.0 0.00 0.00 0.00 61 1017.5
20200401021948 44 59 0.0 0.0 0.00 0.00 0.00 60 1017.5
20200401020936 44 73 0.0 0.0 0.00 0.00 0.00 59 1017.5
20200401015942 45 50 0.0 0.0 0.00 0.00 0.00 58 1017.6
20200401014952 45 63 0.0 0.0 0.00 0.00 0.00 57 1017.6
20200401013940 46 70 0.0 0.0 0.00 0.00 0.00 57 1017.6
20200401012934 46 87 0.0 0.0 0.00 0.00 0.00 57 1017.5
20200401011953 46 105 0.0 0.0 0.00 0.00 0.00 56 1017.5
20200401010941 46 105 0.0 0.0 0.00 0.00 0.00 55 1017.4
20200401005937 46 90 0.0 0.0 0.00 0.00 0.00 53 1017.3
20200401004949 47 93 0.0 0.0 0.00 0.00 0.00 53 1017.3
20200401003936 47 117 0.0 0.0 0.00 0.00 0.00 52 1017.3
20200401002945 47 107 0.0 0.0 0.00 0.00 0.00 50 1017.4
20200401001935 48 99 0.0 0.0 0.00 0.00 0.00 48 1017.3
20200401000944 48 80 0.0 0.0 0.00 0.00 0.00 52 1017.3
20200331235941 49 88 0.0 0.0 0.00 0.00 0.00 50 1017.2
20200331234934 50 76 0.0 0.0 0.00 0.00 0.00 46 1017.1
20200331233953 50 78 0.0 0.0 0.00 0.00 0.00 44 1017.1
20200331232938 50 92 8.0 0.0 0.00 0.00 0.00 42 1017.1
20200331231936 51 360 0.0 0.0 0.00 0.00 0.00 43 1017.2
20200331230951 51 360 0.0 0.0 0.00 0.00 0.00 41 1017.1
20200331225943 52 360 0.0 0.0 0.00 0.00 0.00 40 1017.1
20200331224939 51 53 7.0 0.0 0.00 0.00 0.00 42 1017.2
20200331223935 51 88 0.0 13.0 0.00 0.00 0.00 40 1017.2
20200331222930 52 360 8.0 0.0 0.00 0.00 0.00 40 1017.2
20200331221943 52 360 0.0 0.0 0.00 0.00 0.00 43 1017.2
20200331220921 52 360 0.0 0.0 0.00 0.00 0.00 39 1017.3
20200331215935 52 360 7.0 0.0 0.00 0.00 0.00 42 1017.5
20200331214944 52 360 4.0 0.0 0.00 0.00 0.00 45 1017.6
20200331213952 52 360 0.0 0.0 0.00 0.00 0.00 43 1017.7
20200331212941 52 360 0.0 0.0 0.00 0.00 0.00 44 1017.7
20200331211937 52 360 0.0 0.0 0.00 0.00 0.00 46 1017.9
20200331210938 52 360 5.0 0.0 0.00 0.00 0.00 42 1018.0
20200331205935 52 360 5.0 0.0 0.00 0.00 0.00 42 1018.0
20200331204946 52 360 5.0 0.0 0.00 0.00 0.00 45 1018.2
20200331203944 51 360 7.0 0.0 0.00 0.00 0.00 45 1018.3
20200331202947 51 360 0.0 0.0 0.00 0.00 0.00 47 1018.5
20200331201935 51 360 0.0 0.0 0.00 0.00 0.00 44 1018.5
20200331200935 52 360 3.0 0.0 0.00 0.00 0.00 45 1018.7
20200331195937 51 360 0.0 0.0 0.00 0.00 0.00 47 1018.8
20200331194944 51 360 4.0 0.0 0.00 0.00 0.00 48 1018.9
20200331193952 50 360 2.0 0.0 0.00 0.00 0.00 48 1019.0
20200331192941 50 360 0.0 0.0 0.00 0.00 0.00 47 1019.2
20200331191941 49 360 9.0 0.0 0.00 0.00 0.00 50 1019.2
20200331190942 49 360 5.0 0.0 0.00 0.00 0.00 52 1019.5
20200331185946 49 360 7.0 0.0 0.00 0.00 0.00 50 1019.6
20200331184951 49 360 5.0 0.0 0.00 0.00 0.00 51 1019.6
20200331183953 49 360 0.0 0.0 0.00 0.00 0.00 49 1019.8
20200331182932 49 360 0.0 0.0 0.00 0.00 0.00 51 1019.9
20200331181942 49 360 10.0 0.0 0.00 0.00 0.00 55 1019.9
20200331180934 48 360 0.0 0.0 0.00 0.00 0.00 54 1020.1
20200331175946 47 360 0.0 0.0 0.00 0.00 0.00 54 1020.3
20200331174937 47 360 5.0 0.0 0.00 0.00 0.00 54 1020.4
20200331173939 46 75 0.0 0.0 0.00 0.00 0.00 54 1020.6
20200331172944 46 360 0.0 0.0 0.00 0.00 0.00 55 1020.8
20200331171937 46 114 2.0 0.0 0.00 0.00 0.00 56 1021.0
20200331170944 46 360 0.0 0.0 0.00 0.00 0.00 57 1021.0
20200331165936 46 360 6.0 0.0 0.00 0.00 0.00 58 1021.0
20200331164943 45 360 4.0 0.0 0.00 0.00 0.00 59 1021.2
20200331163946 44 360 0.0 0.0 0.00 0.00 0.00 60 1021.4
20200331162953 44 360 0.0 0.0 0.00 0.00 0.00 62 1021.4
20200331161945 43 360 0.0 0.0 0.00 0.00 0.00 63 1021.4
20200331160943 43 360 3.0 0.0 0.00 0.00 0.00 61 1021.6
20200331155942 43 360 0.0 0.0 0.00 0.00 0.00 64 1021.7
20200331154943 42 360 0.0 0.0 0.00 0.00 0.00 65 1021.7
20200331153952 41 87 0.0 0.0 0.00 0.00 0.00 66 1021.7
20200331152941 41 105 0.0 0.0 0.00 0.00 0.00 66 1021.7
20200331151940 41 70 8.0 0.0 0.00 0.00 0.00 67 1021.8
20200331150936 40 110 0.0 17.0 0.00 0.00 0.00 68 1021.9
20200331145948 39 89 0.0 0.0 0.00 0.00 0.00 70 1022.0
20200331144953 39 102 0.0 0.0 0.00 0.00 0.00 70 1022.2
20200331143952 38 118 0.0 0.0 0.00 0.00 0.00 72 1022.3
20200331142943 38 360 0.0 0.0 0.00 0.00 0.00 72 1022.3
20200331141948 37 103 0.0 0.0 0.00 0.00 0.00 72 1022.3
20200331140941 37 106 0.0 0.0 0.00 0.00 0.00 74 1022.4
20200331135936 36 106 0.0 0.0 0.00 0.00 0.00 77 1022.4
20200331134935 35 360 0.0 0.0 0.00 0.00 0.00 77 1022.5
20200331133942 35 360 0.0 0.0 0.00 0.00 0.00 80 1022.4
20200331132952 34 360 0.0 0.0 0.00 0.00 0.00 82 1022.6
20200331131954 33 360 0.0 0.0 0.00 0.00 0.00 86 1022.7
20200331130942 31 360 0.0 0.0 0.00 0.00 0.00 90 1022.9
20200331125950 29 101 0.0 0.0 0.00 0.00 0.00 90 1023.1
20200331124954 28 360 0.0 0.0 0.00 0.00 0.00 91 1023.1
20200331123950 26 101 0.0 0.0 0.00 0.00 0.00 90 1023.1
20200331122935 25 101 0.0 0.0 0.00 0.00 0.00 88 1023.1
20200331121942 25 101 0.0 0.0 0.00 0.00 0.00 88 1023.1
20200331120958 25 101 0.0 0.0 0.00 0.00 0.00 88 1023.0
20200331115938 25 101 0.0 0.0 0.00 0.00 0.00 88 1022.9
20200331114943 25 101 0.0 0.0 0.00 0.00 0.00 88 1022.9
20200331113953 25 101 0.0 0.0 0.00 0.00 0.00 87 1023.0
20200331112941 26 101 0.0 0.0 0.00 0.00 0.00 87 1023.1
20200331111941 26 101 0.0 0.0 0.00 0.00 0.00 87 1023.1
20200331110941 26 101 0.0 0.0 0.00 0.00 0.00 87 1023.1
20200331105948 26 101 0.0 0.0 0.00 0.00 0.00 86 1023.1
20200331104937 26 101 0.0 0.0 0.00 0.00 0.00 86 1023.1
20200331103944 27 101 0.0 0.0 0.00 0.00 0.00 85 1023.2
20200331102950 27 101 0.0 0.0 0.00 0.00 0.00 85 1023.2
20200331101938 28 101 0.0 0.0 0.00 0.00 0.00 85 1023.1
20200331100946 27 101 0.0 0.0 0.00 0.00 0.00 85 1023.2
20200331095953 27 101 0.0 0.0 0.00 0.00 0.00 84 1023.2
20200331094946 28 360 0.0 0.0 0.00 0.00 0.00 83 1023.1
20200331093954 28 360 0.0 0.0 0.00 0.00 0.00 83 1023.1
20200331092954 29 103 0.0 0.0 0.00 0.00 0.00 81 1023.1